Starlink 31410

operational
NORAD ID: 59179 Int'l Des: 2024-045 Owner: SPXS Country: US Constellation: starlink
LEOCIRCULAR

Starlink 31410について

説明を読み込み中...

リアルタイム位置

3D地球を読み込み中...

次回通過

高度履歴

Altitude vs Time

uPlot chart will show altitude changes over time

軌道要素

1 59179U 24045B 25296.58984921 .00006889 00000-0 27291-3 0 9991
2 59179 43.0001 146.8249 0001501 264.6869 95.3811 15.25917156 92193
Epoch: Oct 23, 2025 • Age: 24 hours

現在のステータス

高度 491.3 km
速度 7.62 km/s
衛星直下点 -17.72°S, 88.44°E
打ち上げ日 Mar 11, 2024
運用期間 1.6 years
タイプ internet

技術仕様

分類 Payload
質量 730.00 kg
乾燥質量 700.00 kg
総質量 730.00 kg
長さ 0.30 m
直径 4.10 m
スパン 29.00 m
形状 Box + pan
製造者 SPXS
バスタイプ Starlink V2M
フェーズステータス In Orbit
所有者/国 SPXS/US

大規模コンステレーション

Loading constellations...